Year,Month,Day,Hour,Minute,Value (Times are PST for temperature in C)
2017,05,22,00,00,14.00
2017,05,22,00,01,14.00
2017,05,22,00,02,14.00
2017,05,22,00,03,14.00
2017,05,22,00,04,13.90
2017,05,22,00,05,13.90
2017,05,22,00,06,13.90
2017,05,22,00,07,13.90
2017,05,22,00,08,13.90
2017,05,22,00,09,13.90
2017,05,22,00,10,13.90
2017,05,22,00,11,13.90
2017,05,22,00,12,13.90
2017,05,22,00,13,13.90
2017,05,22,00,14,13.90
2017,05,22,00,15,13.90
2017,05,22,00,16,13.90
2017,05,22,00,17,13.90
2017,05,22,00,18,14.00
2017,05,22,00,19,14.00
2017,05,22,00,20,14.10
2017,05,22,00,21,14.00
2017,05,22,00,22,14.10
2017,05,22,00,23,14.10
2017,05,22,00,24,14.10
2017,05,22,00,25,14.10
2017,05,22,00,26,14.10
2017,05,22,00,27,14.10
2017,05,22,00,28,14.10
2017,05,22,00,29,14.10
2017,05,22,00,30,14.20
2017,05,22,00,31,14.20
2017,05,22,00,32,14.20
2017,05,22,00,33,14.20
2017,05,22,00,34,14.20
2017,05,22,00,35,14.10
2017,05,22,00,36,14.10
2017,05,22,00,37,14.10
2017,05,22,00,38,14.10
2017,05,22,00,39,14.10
2017,05,22,00,40,14.10
2017,05,22,00,41,14.10
2017,05,22,00,42,14.00
2017,05,22,00,43,14.00
2017,05,22,00,44,14.00
2017,05,22,00,45,14.00
2017,05,22,00,46,14.00
2017,05,22,00,47,13.90
2017,05,22,00,48,13.90
2017,05,22,00,49,13.90
2017,05,22,00,50,13.90
2017,05,22,00,51,13.80
2017,05,22,00,52,13.80
2017,05,22,00,53,13.80
2017,05,22,00,54,13.80
2017,05,22,00,55,13.80
2017,05,22,00,56,13.80
2017,05,22,00,57,13.80
2017,05,22,00,58,13.80
2017,05,22,00,59,13.70
2017,05,22,01,00,13.70
2017,05,22,01,01,13.70
2017,05,22,01,02,13.70
2017,05,22,01,03,13.70
2017,05,22,01,04,13.70
2017,05,22,01,05,13.70
2017,05,22,01,06,13.80
2017,05,22,01,07,13.80
2017,05,22,01,08,13.80
2017,05,22,01,09,13.80
2017,05,22,01,10,13.80
2017,05,22,01,11,13.80
2017,05,22,01,12,13.80
2017,05,22,01,13,13.80
2017,05,22,01,14,13.80
2017,05,22,01,15,13.80
2017,05,22,01,16,13.80
2017,05,22,01,17,13.80
2017,05,22,01,18,13.80
2017,05,22,01,19,13.80
2017,05,22,01,20,13.70
2017,05,22,01,21,13.70
2017,05,22,01,22,13.70
2017,05,22,01,23,13.70
2017,05,22,01,24,13.70
2017,05,22,01,25,13.70
2017,05,22,01,26,13.60
2017,05,22,01,27,13.60
2017,05,22,01,28,13.60
2017,05,22,01,29,13.60
2017,05,22,01,30,13.60
2017,05,22,01,31,13.60
2017,05,22,01,32,13.60
2017,05,22,01,33,13.60
2017,05,22,01,34,13.60
2017,05,22,01,35,13.50
2017,05,22,01,36,13.50
2017,05,22,01,37,13.50
2017,05,22,01,38,13.40
2017,05,22,01,39,13.40
2017,05,22,01,40,13.40
2017,05,22,01,41,13.40
2017,05,22,01,42,13.40
2017,05,22,01,43,13.40
2017,05,22,01,44,13.40
2017,05,22,01,45,13.40
2017,05,22,01,46,13.40
2017,05,22,01,47,13.30
2017,05,22,01,48,13.30
2017,05,22,01,49,13.30
2017,05,22,01,50,13.30
2017,05,22,01,51,13.30
2017,05,22,01,52,13.30
2017,05,22,01,53,13.30
2017,05,22,01,54,13.30
2017,05,22,01,55,13.30
2017,05,22,01,56,13.30
2017,05,22,01,57,13.30
2017,05,22,01,58,13.30
2017,05,22,01,59,13.30
2017,05,22,02,00,13.30
2017,05,22,02,01,13.30
2017,05,22,02,02,13.20
2017,05,22,02,03,13.20
2017,05,22,02,04,13.20
2017,05,22,02,05,13.20
2017,05,22,02,06,13.20
2017,05,22,02,07,13.20
2017,05,22,02,08,13.20
2017,05,22,02,09,13.20
2017,05,22,02,10,13.10
2017,05,22,02,11,13.10
2017,05,22,02,12,13.10
2017,05,22,02,13,13.10
2017,05,22,02,14,13.10
2017,05,22,02,15,13.10
2017,05,22,02,16,13.10
2017,05,22,02,17,13.10
2017,05,22,02,18,13.00
2017,05,22,02,19,13.00
2017,05,22,02,20,13.00
2017,05,22,02,21,13.00
2017,05,22,02,22,13.00
2017,05,22,02,23,13.10
2017,05,22,02,24,13.10
2017,05,22,02,25,13.10
2017,05,22,02,26,13.20
2017,05,22,02,27,13.20
2017,05,22,02,28,13.30
2017,05,22,02,29,13.40
2017,05,22,02,30,13.60
2017,05,22,02,31,13.70
2017,05,22,02,32,13.80
2017,05,22,02,33,13.90
2017,05,22,02,34,13.90
2017,05,22,02,35,13.90
2017,05,22,02,36,13.90
2017,05,22,02,37,13.90
2017,05,22,02,38,13.90
2017,05,22,02,39,13.90
2017,05,22,02,40,13.90
2017,05,22,02,41,13.90
2017,05,22,02,42,13.80
2017,05,22,02,43,13.80
2017,05,22,02,44,13.80
2017,05,22,02,45,13.80
2017,05,22,02,46,13.70
2017,05,22,02,47,13.70
2017,05,22,02,48,13.70
2017,05,22,02,49,13.70
2017,05,22,02,50,13.70
2017,05,22,02,51,13.70
2017,05,22,02,52,13.70
2017,05,22,02,53,13.80
2017,05,22,02,54,13.80
2017,05,22,02,55,14.00
2017,05,22,02,56,14.10
2017,05,22,02,57,14.30
2017,05,22,02,58,14.40
2017,05,22,02,59,14.50
2017,05,22,03,00,14.60
2017,05,22,03,01,14.70
2017,05,22,03,02,14.80
2017,05,22,03,03,15.00
2017,05,22,03,04,15.00
2017,05,22,03,05,15.20
2017,05,22,03,06,15.30
2017,05,22,03,07,15.50
2017,05,22,03,08,15.50
2017,05,22,03,09,15.60
2017,05,22,03,10,15.70
2017,05,22,03,11,15.80
2017,05,22,03,12,15.80
2017,05,22,03,13,15.90
2017,05,22,03,14,15.90
2017,05,22,03,15,16.00
2017,05,22,03,16,16.10
2017,05,22,03,17,16.10
2017,05,22,03,18,16.20
2017,05,22,03,19,16.20
2017,05,22,03,20,16.20
2017,05,22,03,21,16.10
2017,05,22,03,22,16.10
2017,05,22,03,23,16.00
2017,05,22,03,24,15.90
2017,05,22,03,25,15.90
2017,05,22,03,26,15.80
2017,05,22,03,27,15.80
2017,05,22,03,28,15.60
2017,05,22,03,29,15.50
2017,05,22,03,30,15.50
2017,05,22,03,31,15.40
2017,05,22,03,32,15.30
2017,05,22,03,33,15.20
2017,05,22,03,34,15.20
2017,05,22,03,35,15.30
2017,05,22,03,36,15.30
2017,05,22,03,37,15.40
2017,05,22,03,38,15.60
2017,05,22,03,39,15.70
2017,05,22,03,40,15.80
2017,05,22,03,41,15.90
2017,05,22,03,42,15.90
2017,05,22,03,43,16.00
2017,05,22,03,44,16.10
2017,05,22,03,45,16.00
2017,05,22,03,46,16.00
2017,05,22,03,47,16.00
2017,05,22,03,48,15.90
2017,05,22,03,49,15.80
2017,05,22,03,50,15.80
2017,05,22,03,51,15.70
2017,05,22,03,52,15.60
2017,05,22,03,53,15.50
2017,05,22,03,54,15.40
2017,05,22,03,55,15.30
2017,05,22,03,56,15.30
2017,05,22,03,57,15.20
2017,05,22,03,58,15.10
2017,05,22,03,59,15.00
2017,05,22,04,00,15.00
2017,05,22,04,01,15.00
2017,05,22,04,02,15.00
2017,05,22,04,03,14.90
2017,05,22,04,04,14.80
2017,05,22,04,05,14.70
2017,05,22,04,06,14.70
2017,05,22,04,07,14.60
2017,05,22,04,08,14.50
2017,05,22,04,09,14.40
2017,05,22,04,10,14.40
2017,05,22,04,11,14.30
2017,05,22,04,12,14.30
2017,05,22,04,13,14.20
2017,05,22,04,14,14.10
2017,05,22,04,15,14.10
2017,05,22,04,16,14.10
2017,05,22,04,17,14.00
2017,05,22,04,18,13.90
2017,05,22,04,19,13.90
2017,05,22,04,20,13.90
2017,05,22,04,21,13.80
2017,05,22,04,22,13.80
2017,05,22,04,23,13.80
2017,05,22,04,24,13.70
2017,05,22,04,25,13.70
2017,05,22,04,26,13.70
2017,05,22,04,27,13.70
2017,05,22,04,28,13.70
2017,05,22,04,29,13.80
2017,05,22,04,30,13.80
2017,05,22,04,31,13.80
2017,05,22,04,32,13.90
2017,05,22,04,33,13.90
2017,05,22,04,34,13.90
2017,05,22,04,35,13.90
2017,05,22,04,36,14.00
2017,05,22,04,37,14.00
2017,05,22,04,38,14.00
2017,05,22,04,39,14.00
2017,05,22,04,40,14.00
2017,05,22,04,41,14.10
2017,05,22,04,42,14.10
2017,05,22,04,43,14.10
2017,05,22,04,44,14.10
2017,05,22,04,45,14.10
2017,05,22,04,46,14.10
2017,05,22,04,47,14.10
2017,05,22,04,48,14.00
2017,05,22,04,49,14.00
2017,05,22,04,50,14.00
2017,05,22,04,51,14.00
2017,05,22,04,52,14.00
2017,05,22,04,53,14.00
2017,05,22,04,54,13.90
2017,05,22,04,55,13.90
2017,05,22,04,56,13.80
2017,05,22,04,57,13.80
2017,05,22,04,58,13.80
2017,05,22,04,59,13.70
2017,05,22,05,00,13.60
2017,05,22,05,01,13.60
2017,05,22,05,02,13.50
2017,05,22,05,03,13.50
2017,05,22,05,04,13.40
2017,05,22,05,05,13.40
2017,05,22,05,06,13.30
2017,05,22,05,07,13.30
2017,05,22,05,08,13.30
2017,05,22,05,09,13.20
2017,05,22,05,10,13.20
2017,05,22,05,11,13.10
2017,05,22,05,12,13.10
2017,05,22,05,13,13.00
2017,05,22,05,14,13.00
2017,05,22,05,15,12.90
2017,05,22,05,16,12.90
2017,05,22,05,17,12.80
2017,05,22,05,18,12.80
2017,05,22,05,19,12.80
2017,05,22,05,20,12.80
2017,05,22,05,21,12.80
2017,05,22,05,22,12.80
2017,05,22,05,23,12.80
2017,05,22,05,24,12.80
2017,05,22,05,25,12.70
2017,05,22,05,26,12.70
2017,05,22,05,27,12.70
2017,05,22,05,28,12.70
2017,05,22,05,29,12.70
2017,05,22,05,30,12.60
2017,05,22,05,31,12.60
2017,05,22,05,32,12.60
2017,05,22,05,33,12.60
2017,05,22,05,34,12.50
2017,05,22,05,35,12.50
2017,05,22,05,36,12.50
2017,05,22,05,37,12.50
2017,05,22,05,38,12.50
2017,05,22,05,39,12.50
2017,05,22,05,40,12.40
2017,05,22,05,41,12.40
2017,05,22,05,42,12.40
2017,05,22,05,43,12.40
2017,05,22,05,44,12.40
2017,05,22,05,45,12.30
2017,05,22,05,46,12.30
2017,05,22,05,47,12.30
2017,05,22,05,48,12.30
2017,05,22,05,49,12.30
2017,05,22,05,50,12.30
2017,05,22,05,51,12.40
2017,05,22,05,52,12.40
2017,05,22,05,53,12.40
2017,05,22,05,54,12.40
2017,05,22,05,55,12.40
2017,05,22,05,56,12.40
2017,05,22,05,57,12.40
2017,05,22,05,58,12.40
2017,05,22,05,59,12.40
2017,05,22,06,00,12.50
2017,05,22,06,01,12.50
2017,05,22,06,02,12.60
2017,05,22,06,03,12.60
2017,05,22,06,04,12.60
2017,05,22,06,05,12.70
2017,05,22,06,06,12.70
2017,05,22,06,07,12.70
2017,05,22,06,08,12.70
2017,05,22,06,09,12.80
2017,05,22,06,10,12.80
2017,05,22,06,11,12.80
2017,05,22,06,12,12.80
2017,05,22,06,13,12.90
2017,05,22,06,14,12.90
2017,05,22,06,15,12.90
2017,05,22,06,16,12.90
2017,05,22,06,17,13.00
2017,05,22,06,18,13.00
2017,05,22,06,19,13.00
2017,05,22,06,20,13.10
2017,05,22,06,21,13.10
2017,05,22,06,22,13.10
2017,05,22,06,23,13.10
2017,05,22,06,24,13.10
2017,05,22,06,25,13.20
2017,05,22,06,26,13.20
2017,05,22,06,27,13.20
2017,05,22,06,28,13.20
2017,05,22,06,29,13.20
2017,05,22,06,30,13.20
2017,05,22,06,31,13.20
2017,05,22,06,32,13.20
2017,05,22,06,33,13.20
2017,05,22,06,34,13.20
2017,05,22,06,35,13.20
2017,05,22,06,36,13.20
2017,05,22,06,37,13.20
2017,05,22,06,38,13.30
2017,05,22,06,39,13.30
2017,05,22,06,40,13.40
2017,05,22,06,41,13.50
2017,05,22,06,42,13.70
2017,05,22,06,43,13.80
2017,05,22,06,44,13.90
2017,05,22,06,45,14.00
2017,05,22,06,46,14.10
2017,05,22,06,47,14.20
2017,05,22,06,48,14.30
2017,05,22,06,49,14.50
2017,05,22,06,50,14.50
2017,05,22,06,51,14.60
2017,05,22,06,52,14.70
2017,05,22,06,53,14.80
2017,05,22,06,54,14.90
2017,05,22,06,55,15.00
2017,05,22,06,56,15.00
2017,05,22,06,57,15.00
2017,05,22,06,58,15.00
2017,05,22,06,59,15.10
2017,05,22,07,00,15.10
2017,05,22,07,01,15.20
2017,05,22,07,02,15.20
2017,05,22,07,03,15.30
2017,05,22,07,04,15.30
2017,05,22,07,05,15.30
2017,05,22,07,06,15.40
2017,05,22,07,07,15.40
2017,05,22,07,08,15.50
2017,05,22,07,09,15.50
2017,05,22,07,10,15.60
2017,05,22,07,11,15.60
2017,05,22,07,12,15.70
2017,05,22,07,13,15.70
2017,05,22,07,14,15.80
2017,05,22,07,15,15.80
2017,05,22,07,16,15.90
2017,05,22,07,17,15.90
2017,05,22,07,18,16.00
2017,05,22,07,19,16.10
2017,05,22,07,20,16.20
2017,05,22,07,21,16.20
2017,05,22,07,22,16.30
2017,05,22,07,23,16.30
2017,05,22,07,24,16.40
2017,05,22,07,25,16.40
2017,05,22,07,26,16.50
2017,05,22,07,27,16.60
2017,05,22,07,28,16.60
2017,05,22,07,29,16.70
2017,05,22,07,30,16.70
2017,05,22,07,31,16.80
2017,05,22,07,32,16.80
2017,05,22,07,33,16.90
2017,05,22,07,34,16.90
2017,05,22,07,35,17.00
2017,05,22,07,36,17.10
2017,05,22,07,37,17.10
2017,05,22,07,38,17.10
2017,05,22,07,39,17.20
2017,05,22,07,40,17.20
2017,05,22,07,41,17.20
2017,05,22,07,42,17.30
2017,05,22,07,43,17.30
2017,05,22,07,44,17.40
2017,05,22,07,45,17.40
2017,05,22,07,46,17.50
2017,05,22,07,47,17.50
2017,05,22,07,48,17.60
2017,05,22,07,49,17.60
2017,05,22,07,50,17.70
2017,05,22,07,51,17.70
2017,05,22,07,52,17.70
2017,05,22,07,53,17.80
2017,05,22,07,54,17.80
2017,05,22,07,55,17.80
2017,05,22,07,56,17.80
2017,05,22,07,57,17.80
2017,05,22,07,58,17.90
2017,05,22,07,59,17.90
2017,05,22,08,00,17.90
2017,05,22,08,01,18.00
2017,05,22,08,02,18.00
2017,05,22,08,03,18.10
2017,05,22,08,04,18.10
2017,05,22,08,05,18.10
2017,05,22,08,06,18.20
2017,05,22,08,07,18.20
2017,05,22,08,08,18.20
2017,05,22,08,09,18.20
2017,05,22,08,10,18.20
2017,05,22,08,11,18.20
2017,05,22,08,12,18.20
2017,05,22,08,13,18.20
2017,05,22,08,14,18.20
2017,05,22,08,15,18.20
2017,05,22,08,16,18.20
2017,05,22,08,17,18.20
2017,05,22,08,18,18.20
2017,05,22,08,19,18.20
2017,05,22,08,20,18.30
2017,05,22,08,21,18.30
2017,05,22,08,22,18.30
2017,05,22,08,23,18.30
2017,05,22,08,24,18.30
2017,05,22,08,25,18.30
2017,05,22,08,26,18.40
2017,05,22,08,27,18.40
2017,05,22,08,28,18.40
2017,05,22,08,29,18.40
2017,05,22,08,30,18.50
2017,05,22,08,31,18.50
2017,05,22,08,32,18.40
2017,05,22,08,33,18.40
2017,05,22,08,34,18.40
2017,05,22,08,35,18.40
2017,05,22,08,36,18.40
2017,05,22,08,37,18.40
2017,05,22,08,38,18.40
2017,05,22,08,39,18.40
2017,05,22,08,40,18.40
2017,05,22,08,41,18.40
2017,05,22,08,42,18.40
2017,05,22,08,43,18.40
2017,05,22,08,44,18.50
2017,05,22,08,45,18.50
2017,05,22,08,46,18.60
2017,05,22,08,47,18.60
2017,05,22,08,48,18.70
2017,05,22,08,49,18.70
2017,05,22,08,50,18.70
2017,05,22,08,51,18.70
2017,05,22,08,52,18.80
2017,05,22,08,53,18.80
2017,05,22,08,54,18.90
2017,05,22,08,55,18.90
2017,05,22,08,56,19.00
2017,05,22,08,57,19.10
2017,05,22,08,58,19.10
2017,05,22,08,59,19.10
2017,05,22,09,00,19.20
2017,05,22,09,01,19.20
2017,05,22,09,02,19.20
2017,05,22,09,03,19.30
2017,05,22,09,04,19.30
2017,05,22,09,05,19.30
2017,05,22,09,06,19.30
2017,05,22,09,07,19.30
2017,05,22,09,08,19.30
2017,05,22,09,09,19.30
2017,05,22,09,10,19.30
2017,05,22,09,11,19.30
2017,05,22,09,12,19.30
2017,05,22,09,13,19.30
2017,05,22,09,14,19.30
2017,05,22,09,15,19.20
2017,05,22,09,16,19.20
2017,05,22,09,17,19.20
2017,05,22,09,18,19.20
2017,05,22,09,19,19.30
2017,05,22,09,20,19.30
2017,05,22,09,21,19.20
2017,05,22,09,22,19.20
2017,05,22,09,23,19.20
2017,05,22,09,24,19.10
2017,05,22,09,25,19.00
2017,05,22,09,26,19.00
2017,05,22,09,27,18.90
2017,05,22,09,28,18.90
2017,05,22,09,29,18.90
2017,05,22,09,30,18.90
2017,05,22,09,31,18.90
2017,05,22,09,32,18.90
2017,05,22,09,33,18.90
2017,05,22,09,34,18.90
2017,05,22,09,35,19.00
2017,05,22,09,36,19.10
2017,05,22,09,37,19.10
2017,05,22,09,38,19.20
2017,05,22,09,39,19.10
2017,05,22,09,40,19.00
2017,05,22,09,41,19.00
2017,05,22,09,42,18.90
2017,05,22,09,43,18.80
2017,05,22,09,44,18.80
2017,05,22,09,45,18.80
2017,05,22,09,46,18.80
2017,05,22,09,47,18.80
2017,05,22,09,48,18.70
2017,05,22,09,49,18.70
2017,05,22,09,50,18.70
2017,05,22,09,51,18.60
2017,05,22,09,52,18.60
2017,05,22,09,53,18.60
2017,05,22,09,54,18.60
2017,05,22,09,55,18.60
2017,05,22,09,56,18.50
2017,05,22,09,57,18.40
2017,05,22,09,58,18.30
2017,05,22,09,59,18.30
2017,05,22,10,00,18.20
2017,05,22,10,01,18.20
2017,05,22,10,02,18.30
2017,05,22,10,03,18.30
2017,05,22,10,04,18.30
2017,05,22,10,05,18.40
2017,05,22,10,06,18.40
2017,05,22,10,07,18.40
2017,05,22,10,08,18.40
2017,05,22,10,09,18.40
2017,05,22,10,10,18.40
2017,05,22,10,11,18.40
2017,05,22,10,12,18.40
2017,05,22,10,13,18.50
2017,05,22,10,14,18.50
2017,05,22,10,15,18.60
2017,05,22,10,16,18.70
2017,05,22,10,17,18.70
2017,05,22,10,18,18.80
2017,05,22,10,19,18.80
2017,05,22,10,20,18.80
2017,05,22,10,21,18.90
2017,05,22,10,22,18.90
2017,05,22,10,23,18.90
2017,05,22,10,24,18.90
2017,05,22,10,25,19.00
2017,05,22,10,26,19.00
2017,05,22,10,27,19.00
2017,05,22,10,28,19.10
2017,05,22,10,29,19.10
2017,05,22,10,30,19.10
2017,05,22,10,31,19.10
2017,05,22,10,32,19.10
2017,05,22,10,33,19.20
2017,05,22,10,34,19.10
2017,05,22,10,35,19.10
2017,05,22,10,36,19.00
2017,05,22,10,37,19.00
2017,05,22,10,38,18.90
2017,05,22,10,39,18.80
2017,05,22,10,40,18.80
2017,05,22,10,41,18.70
2017,05,22,10,42,18.70
2017,05,22,10,43,18.70
2017,05,22,10,44,18.60
2017,05,22,10,45,18.70
2017,05,22,10,46,18.70
2017,05,22,10,47,18.70
2017,05,22,10,48,18.70
2017,05,22,10,49,18.70
2017,05,22,10,50,18.60
2017,05,22,10,51,18.60
2017,05,22,10,52,18.60
2017,05,22,10,53,18.60
2017,05,22,10,54,18.60
2017,05,22,10,55,18.50
2017,05,22,10,56,18.50
2017,05,22,10,57,18.40
2017,05,22,10,58,18.40
2017,05,22,10,59,18.30
2017,05,22,11,00,18.20
2017,05,22,11,01,18.10
2017,05,22,11,02,18.00
2017,05,22,11,03,17.90
2017,05,22,11,04,17.80
2017,05,22,11,05,17.80
2017,05,22,11,06,17.70
2017,05,22,11,07,17.60
2017,05,22,11,08,17.60
2017,05,22,11,09,17.60
2017,05,22,11,10,17.60
2017,05,22,11,11,17.60
2017,05,22,11,12,17.60
2017,05,22,11,13,17.60
2017,05,22,11,14,17.60
2017,05,22,11,15,17.60
2017,05,22,11,16,17.50
2017,05,22,11,17,17.50
2017,05,22,11,18,17.50
2017,05,22,11,19,17.50
2017,05,22,11,20,17.50
2017,05,22,11,21,17.60
2017,05,22,11,22,17.60
2017,05,22,11,23,17.70
2017,05,22,11,24,17.80
2017,05,22,11,25,17.90
2017,05,22,11,26,17.90
2017,05,22,11,27,18.00
2017,05,22,11,28,18.10
2017,05,22,11,29,18.10
2017,05,22,11,30,18.10
2017,05,22,11,31,18.10
2017,05,22,11,32,18.10
2017,05,22,11,33,18.10
2017,05,22,11,34,18.10
2017,05,22,11,35,18.10
2017,05,22,11,36,18.10
2017,05,22,11,37,18.00
2017,05,22,11,38,18.10
2017,05,22,11,39,18.10
2017,05,22,11,40,18.10
2017,05,22,11,41,18.20
2017,05,22,11,42,18.20
2017,05,22,11,43,18.20
2017,05,22,11,44,18.20
2017,05,22,11,45,18.30
2017,05,22,11,46,18.30
2017,05,22,11,47,18.30
2017,05,22,11,48,18.40
2017,05,22,11,49,18.40
2017,05,22,11,50,18.50
2017,05,22,11,51,18.50
2017,05,22,11,52,18.50
2017,05,22,11,53,18.50
2017,05,22,11,54,18.50
2017,05,22,11,55,18.50
2017,05,22,11,56,18.60
2017,05,22,11,57,18.60
2017,05,22,11,58,18.70
2017,05,22,11,59,18.80
2017,05,22,12,00,18.80
2017,05,22,12,01,18.80
2017,05,22,12,02,18.80
2017,05,22,12,03,18.80
2017,05,22,12,04,18.80
2017,05,22,12,05,18.80
2017,05,22,12,06,18.80
2017,05,22,12,07,18.80
2017,05,22,12,08,18.80
2017,05,22,12,09,18.80
2017,05,22,12,10,18.80
2017,05,22,12,11,18.80
2017,05,22,12,12,18.80
2017,05,22,12,13,18.80
2017,05,22,12,14,18.80
2017,05,22,12,15,18.70
2017,05,22,12,16,18.70
2017,05,22,12,17,18.70
2017,05,22,12,18,18.70
2017,05,22,12,19,18.70
2017,05,22,12,20,18.80
2017,05,22,12,21,18.80
2017,05,22,12,22,18.80
2017,05,22,12,23,18.90
2017,05,22,12,24,18.90
2017,05,22,12,25,19.00
2017,05,22,12,26,19.10
2017,05,22,12,27,19.10
2017,05,22,12,28,19.10
2017,05,22,12,29,19.20
2017,05,22,12,30,19.20
2017,05,22,12,31,19.20
2017,05,22,12,32,19.20
2017,05,22,12,33,19.20
2017,05,22,12,34,19.20
2017,05,22,12,35,19.20
2017,05,22,12,36,19.30
2017,05,22,12,37,19.30
2017,05,22,12,38,19.40
2017,05,22,12,39,19.40
2017,05,22,12,40,19.50
2017,05,22,12,41,19.60
2017,05,22,12,42,19.60
2017,05,22,12,43,19.70
2017,05,22,12,44,19.70
2017,05,22,12,45,19.80
2017,05,22,12,46,19.80
2017,05,22,12,47,19.90
2017,05,22,12,48,19.90
2017,05,22,12,49,19.90
2017,05,22,12,50,19.90
2017,05,22,12,51,19.90
2017,05,22,12,52,19.80
2017,05,22,12,53,19.80
2017,05,22,12,54,19.90
2017,05,22,12,55,19.90
2017,05,22,12,56,19.90
2017,05,22,12,57,20.00
2017,05,22,12,58,20.10
2017,05,22,12,59,20.10
2017,05,22,13,00,20.20
2017,05,22,13,01,20.20
2017,05,22,13,02,20.20
2017,05,22,13,03,20.20
2017,05,22,13,04,20.20
2017,05,22,13,05,20.20
2017,05,22,13,06,20.20
2017,05,22,13,07,20.20
2017,05,22,13,08,20.20
2017,05,22,13,09,20.20
2017,05,22,13,10,20.10
2017,05,22,13,11,20.00
2017,05,22,13,12,20.00
2017,05,22,13,13,19.90
2017,05,22,13,14,19.80
2017,05,22,13,15,19.80
2017,05,22,13,16,19.80
2017,05,22,13,17,19.90
2017,05,22,13,18,19.90
2017,05,22,13,19,20.00
2017,05,22,13,20,20.20
2017,05,22,13,21,20.30
2017,05,22,13,22,20.30
2017,05,22,13,23,20.30
2017,05,22,13,24,20.30
2017,05,22,13,25,20.20
2017,05,22,13,26,20.10
2017,05,22,13,27,20.00
2017,05,22,13,28,20.00
2017,05,22,13,29,19.90
2017,05,22,13,30,19.90
2017,05,22,13,31,19.90
2017,05,22,13,32,19.90
2017,05,22,13,33,19.80
2017,05,22,13,34,19.80
2017,05,22,13,35,19.80
2017,05,22,13,36,19.70
2017,05,22,13,37,19.70
2017,05,22,13,38,19.70
2017,05,22,13,39,19.70
2017,05,22,13,40,19.70
2017,05,22,13,41,19.80
2017,05,22,13,42,19.80
2017,05,22,13,43,19.80
2017,05,22,13,44,19.80
2017,05,22,13,45,19.80
2017,05,22,13,46,19.80
2017,05,22,13,47,19.70
2017,05,22,13,48,19.70
2017,05,22,13,49,19.70
2017,05,22,13,50,19.70
2017,05,22,13,51,19.80
2017,05,22,13,52,19.80
2017,05,22,13,53,19.90
2017,05,22,13,54,20.00
2017,05,22,13,55,20.10
2017,05,22,13,56,20.20
2017,05,22,13,57,20.20
2017,05,22,13,58,20.30
2017,05,22,13,59,20.30
2017,05,22,14,00,20.40
2017,05,22,14,01,20.40
2017,05,22,14,02,20.40
2017,05,22,14,03,20.40
2017,05,22,14,04,20.40
2017,05,22,14,05,20.40
2017,05,22,14,06,20.40
2017,05,22,14,07,20.40
2017,05,22,14,08,20.40
2017,05,22,14,09,20.40
2017,05,22,14,10,20.40
2017,05,22,14,11,20.40
2017,05,22,14,12,20.40
2017,05,22,14,13,20.40
2017,05,22,14,14,20.40
2017,05,22,14,15,20.40
2017,05,22,14,16,20.50
2017,05,22,14,17,20.50
2017,05,22,14,18,20.60
2017,05,22,14,19,20.70
2017,05,22,14,20,20.80
2017,05,22,14,21,20.80
2017,05,22,14,22,20.80
2017,05,22,14,23,20.80
2017,05,22,14,24,20.80
2017,05,22,14,25,20.90
2017,05,22,14,26,20.90
2017,05,22,14,27,21.00
2017,05,22,14,28,21.00
2017,05,22,14,29,21.10
2017,05,22,14,30,21.10
2017,05,22,14,31,21.20
2017,05,22,14,32,21.20
2017,05,22,14,33,21.30
2017,05,22,14,34,21.30
2017,05,22,14,35,21.40
2017,05,22,14,36,21.50
2017,05,22,14,37,21.60
2017,05,22,14,38,21.70
2017,05,22,14,39,21.80
2017,05,22,14,40,21.80
2017,05,22,14,41,21.90
2017,05,22,14,42,21.90
2017,05,22,14,43,22.00
2017,05,22,14,44,22.00
2017,05,22,14,45,22.00
2017,05,22,14,46,22.00
2017,05,22,14,47,22.00
2017,05,22,14,48,22.00
2017,05,22,14,49,22.00
2017,05,22,14,50,22.10
2017,05,22,14,51,22.10
2017,05,22,14,52,22.10
2017,05,22,14,53,22.10
2017,05,22,14,54,22.20
2017,05,22,14,55,22.20
2017,05,22,14,56,22.20
2017,05,22,14,57,22.20
2017,05,22,14,58,22.20
2017,05,22,14,59,22.30
2017,05,22,15,00,22.30
2017,05,22,15,01,22.40
2017,05,22,15,02,22.40
2017,05,22,15,03,22.50
2017,05,22,15,04,22.50
2017,05,22,15,05,22.60
2017,05,22,15,06,22.60
2017,05,22,15,07,22.60
2017,05,22,15,08,22.60
2017,05,22,15,09,22.60
2017,05,22,15,10,22.60
2017,05,22,15,11,22.70
2017,05,22,15,12,22.70
2017,05,22,15,13,22.70
2017,05,22,15,14,22.80
2017,05,22,15,15,22.80
2017,05,22,15,16,22.80
2017,05,22,15,17,22.90
2017,05,22,15,18,22.90
2017,05,22,15,19,22.90
2017,05,22,15,20,22.90
2017,05,22,15,21,22.80
2017,05,22,15,22,22.80
2017,05,22,15,23,22.80
2017,05,22,15,24,22.80
2017,05,22,15,25,22.80
2017,05,22,15,26,22.90
2017,05,22,15,27,22.90
2017,05,22,15,28,22.90
2017,05,22,15,29,23.00
2017,05,22,15,30,23.00
2017,05,22,15,31,23.10
2017,05,22,15,32,23.10
2017,05,22,15,33,23.20
2017,05,22,15,34,23.20
2017,05,22,15,35,23.20
2017,05,22,15,36,23.20
2017,05,22,15,37,23.20
2017,05,22,15,38,23.20
2017,05,22,15,39,23.20
2017,05,22,15,40,23.20
2017,05,22,15,41,23.20
2017,05,22,15,42,23.20
2017,05,22,15,43,23.20
2017,05,22,15,44,23.10
2017,05,22,15,45,23.10
2017,05,22,15,46,23.00
2017,05,22,15,47,23.00
2017,05,22,15,48,22.90
2017,05,22,15,49,22.90
2017,05,22,15,50,22.90
2017,05,22,15,51,22.80
2017,05,22,15,52,22.80
2017,05,22,15,53,22.80
2017,05,22,15,54,22.80
2017,05,22,15,55,22.70
2017,05,22,15,56,22.80
2017,05,22,15,57,22.80
2017,05,22,15,58,22.80
2017,05,22,15,59,22.90
2017,05,22,16,00,22.90
2017,05,22,16,01,23.00
2017,05,22,16,02,23.10
2017,05,22,16,03,23.10
2017,05,22,16,04,23.20
2017,05,22,16,05,23.30
2017,05,22,16,06,23.30
2017,05,22,16,07,23.30
2017,05,22,16,08,23.40
2017,05,22,16,09,23.40
2017,05,22,16,10,23.40
2017,05,22,16,11,23.40
2017,05,22,16,12,23.40
2017,05,22,16,13,23.40
2017,05,22,16,14,23.40
2017,05,22,16,15,23.50
2017,05,22,16,16,23.50
2017,05,22,16,17,23.60
2017,05,22,16,18,23.70
2017,05,22,16,19,23.70
2017,05,22,16,20,23.70
2017,05,22,16,21,23.70
2017,05,22,16,22,23.70
2017,05,22,16,23,23.60
2017,05,22,16,24,23.50
2017,05,22,16,25,23.40
2017,05,22,16,26,23.40
2017,05,22,16,27,23.30
2017,05,22,16,28,23.20
2017,05,22,16,29,23.20
2017,05,22,16,30,23.10
2017,05,22,16,31,23.10
2017,05,22,16,32,23.00
2017,05,22,16,33,23.00
2017,05,22,16,34,23.00
2017,05,22,16,35,22.90
2017,05,22,16,36,23.00
2017,05,22,16,37,22.90
2017,05,22,16,38,22.90
2017,05,22,16,39,22.90
2017,05,22,16,40,22.90
2017,05,22,16,41,22.90
2017,05,22,16,42,22.90
2017,05,22,16,43,22.90
2017,05,22,16,44,22.90
2017,05,22,16,45,22.90
2017,05,22,16,46,22.90
2017,05,22,16,47,23.00
2017,05,22,16,48,23.00
2017,05,22,16,49,23.10
2017,05,22,16,50,23.10
2017,05,22,16,51,23.10
2017,05,22,16,52,23.20
2017,05,22,16,53,23.30
2017,05,22,16,54,23.30
2017,05,22,16,55,23.40
2017,05,22,16,56,23.40
2017,05,22,16,57,23.40
2017,05,22,16,58,23.50
2017,05,22,16,59,23.60
2017,05,22,17,00,23.60
2017,05,22,17,01,23.70
2017,05,22,17,02,23.80
2017,05,22,17,03,23.80
2017,05,22,17,04,23.90
2017,05,22,17,05,23.90
2017,05,22,17,06,23.90
2017,05,22,17,07,24.00
2017,05,22,17,08,24.00
2017,05,22,17,09,24.00
2017,05,22,17,10,24.00
2017,05,22,17,11,24.10
2017,05,22,17,12,24.10
2017,05,22,17,13,24.10
2017,05,22,17,14,24.10
2017,05,22,17,15,24.20
2017,05,22,17,16,24.30
2017,05,22,17,17,24.30
2017,05,22,17,18,24.40
2017,05,22,17,19,24.40